Weather History for PAEI - June, 2013

Change the Weather History Date:

Wednesday, June 19, 2013

  Actual Average (WUND) Record (WUND)
Temperature  
Mean Temperature 72 °F -  
Max Temperature 85 °F - - (-1)
Min Temperature 60 °F - - (-1)
Cooling Degree Days 8    
Growing Degree Days 22 (Base 50)    
Moisture  
Dew Point 41 °F    
Average Humidity 28    
Maximum Humidity 50    
Minimum Humidity 18    
Precipitation  
Precipitation 0.00 in - - ()
Sea Level Pressure  
Sea Level Pressure 29.84 in    
Wind  
Wind Speed 9 mph (SE)    
Max Wind Speed 23 mph    
Max Gust Speed 28 mph    
Visibility 10 miles    
Events      
Averages and records for this station are not official NWS values.
T = Trace of Precipitation, MM = Missing Value Source: NWS Daily Summary

Daily Weather History Graph

Daily Weather History Graph

Search for Another Location

Airport or City:

Trip Planner

Search our weather history database for the weather conditions in past years. The results will help you decide how hot, cold, wet, or windy it might be!

Date:

Astronomy

Jun. 19, 2013 Rise Set
Actual Time 3:00 AM AKDT 12:39 AM AKDT
Civil Twilight Sun does not set Sun does not set
Nautical Twilight Sun does not set Sun does not set
Astronomical Twilight Sun does not set Sun does not set
Moon 7:01 PM AKDT (6/19) 1:53 AM AKDT (6/19)
Length of Visible Light 24h 00m
Length of Day
21h 38m
Waxing Gibbous, 82% of the Moon is Illuminated
Jun 19
Waxing Gibbous
Jun 23
Full
Jun 29
Last Quarter
Jul 7
New
Jul 15
First Quarter

Hourly Weather History & Observations

Time (AKDT) Temp. Dew Point Humidity Pressure Visibility Wind Dir Wind Speed Gust Speed Precip Events Conditions
12:55 AM 65.3 °F 41.0 °F 41% 29.89 in 10.0 mi Calm Calm - N/A   Clear
1:55 AM 60.4 °F 41.9 °F 50% 29.90 in 10.0 mi Calm Calm - N/A   Clear
2:55 AM 60.3 °F 41.4 °F 50% 29.89 in 10.0 mi East 4.6 mph - N/A   Clear
5:55 AM 68.7 °F 40.5 °F 36% 29.87 in 10.0 mi East 8.1 mph - N/A   Clear
6:55 AM 72.9 °F 40.1 °F 31% 29.87 in 10.0 mi East 10.4 mph - N/A   Clear
7:55 AM 75.7 °F 40.5 °F 28% 29.86 in 10.0 mi ESE 13.8 mph - N/A   Clear
8:55 AM 77.4 °F 40.8 °F 27% 29.86 in 10.0 mi SE 16.1 mph - N/A   Clear
9:55 AM 79.0 °F 41.5 °F 26% 29.86 in 10.0 mi ESE 15.0 mph - N/A   Clear
10:55 AM 80.8 °F 40.3 °F 24% 29.86 in 10.0 mi SE 23.0 mph 27.6 mph N/A   Clear
11:55 AM 81.5 °F 42.1 °F 25% 29.85 in 10.0 mi SE 13.8 mph 21.9 mph N/A   Clear
12:55 PM 82.6 °F 40.5 °F 22% 29.85 in 10.0 mi ESE 17.3 mph 23.0 mph N/A   Clear
1:55 PM 83.7 °F 38.8 °F 20% 29.84 in 10.0 mi ESE 19.6 mph - N/A   Clear
2:55 PM 83.8 °F 40.8 °F 22% 29.82 in 10.0 mi SE 17.3 mph 23.0 mph N/A   Clear
3:55 PM 85.3 °F 36.7 °F 18% 29.81 in 10.0 mi SE 15.0 mph - N/A   Clear
4:55 PM 85.1 °F 39.4 °F 20% 29.79 in 10.0 mi East 11.5 mph 18.4 mph N/A   Clear
5:55 PM 85.5 °F 39.0 °F 19% 29.79 in 10.0 mi ESE 16.1 mph - N/A   Partly Cloudy
6:55 PM 84.0 °F 40.3 °F 21% 29.79 in 10.0 mi ESE 16.1 mph - N/A   Scattered Clouds
7:55 PM 83.8 °F 43.0 °F 24% 29.79 in 10.0 mi South 9.2 mph - N/A   Clear
8:55 PM 83.3 °F 40.6 °F 22% 29.79 in 10.0 mi SSE 11.5 mph - N/A   Clear
9:55 PM 81.3 °F 37.8 °F 21% 29.79 in 10.0 mi SE 9.2 mph - N/A   Clear
10:55 PM 72.9 °F 43.0 °F 34% 29.80 in 10.0 mi Calm Calm - N/A   Clear
11:55 PM 68.4 °F 43.3 °F 40% 29.81 in 10.0 mi Calm Calm - N/A   Clear